Dewpoint
26 25 24 22 21 20 19 19 17 17 17 17 18 19 19 18 18 17 18 17 17 17 16 16 15 16 15 13 14 15 13 13 13 11 12 12 12 13 14 15 16 15 15
26 25 23 22 21 20 18 17 18 16 17 17 17 18 18 18 17 15 15 15 15 15 15 14 13 12 12 13 13 12 12 12 12 11 11 11 12 14 15 15 15 14 15
25 24 23 22 20 19 18 17 17 16 16 17 16 16 16 16 15 15 14 14 14 13 14 14 13 14 14 13 12 11 11 10 13 13 11 13 14 15 15 16 13 14 12
24 23 22 21 20 18 18 17 17 17 16 16 16 15 14 14 13 13 13 13 13 13 14 14 14 14 14 14 13 13 13 15 15 14 13 13 14 15 16 13 11 12 13
22 22 22 22 21 20 19 19 19 18 16 16 16 15 14 12 11 12 10 14 13 13 14 14 15 16 17 16 13 15 16 15 15 14 14 14 15 15 14 13 12 14 12
22 22 22 22 22 22 21 20 19 18 18 17 16 15 14 8 16 20 13 13 14 11 13 15 14 18 18 20 21 21 19 14 5 5 14 16 16 15 14 12 15 12 9
23 24 24 24 23 23 22 20 19 18 17 16 16 16 14 13 19 22 22 13 14 13 13 13 13 12 16 12 16 19 19 21 21 17 17 18 17 15 14 15 14 12 10
24 25 24 24 24 23 22 20 20 19 18 16 17 16 15 14 20 23 25 18 15 15 15 15 14 14 14 13 12 14 13 13 13 14 17 17 17 18 21 18 14 10 9
23 24 24 24 24 23 23 23 23 22 22 21 20 21 20 18 21 23 23 22 19 18 17 16 15 14 17 19 17 15 15 16 19 22 23 25 26 23 19 14 4 -4 3
23 24 24 25 26 26 25 25 25 24 24 23 24 24 23 22 21 24 23 23 20 19 18 16 21 17 19 20 18 15 14 16 17 16 16 17 15 11 15 9 9 3 5
25 25 26 26 27 27 27 27 27 26 25 25 24 23 22 21 20 23 25 23 21 18 18 17 17 20 22 22 23 20 19 20 18 19 12 11 9 9 8 8 8 8 5
27 27 27 28 29 29 29 29 28 27 26 25 23 21 18 18 19 21 24 25 24 18 18 17 17 20 22 23 22 23 24 24 17 6 5 5 6 6 7 8 8 8 7
29 30 31 31 31 31 30 28 27 26 25 23 19 19 17 15 15 21 22 23 24 23 21 20 22 23 23 23 24 24 24 18 11 5 7 8 5 6 7 7 7 7 7
27 25 25 26 25 26 27 24 23 21 21 20 18 18 14 12 13 14 16 17 21 22 22 20 21 23 23 25 21 21 21 17 14 11 9 6 7 6 4 5 3 4 2
20 18 18 19 20 17 18 19 20 18 21 19 17 15 11 10 11 15 12 7 4 13 13 2 3 10 13 14 15 15 15 14 12 11 9 5 4 4 3 3 2 -1 -3
15 15 16 17 16 17 16 14 20 19 21 21 19 14 6 15 17 18 19 20 21 22 14 12 12 12 13 12 12 12 11 9 10 11 7 4 3 2 -0 -2 -0 -5 -4
16 14 13 13 13 12 10 13 11 15 21 21 21 22 21 15 20 22 23 23 22 17 10 6 3 4 4 7 9 10 10 11 9 8 7 3 1 -2 -5 -7 -3 -3 -6
8 9 8 7 8 6 7 6 7 9 9 4 17 19 19 18 17 16 15 11 -2 -0 -6 -10 -12 -11 -9 -7 -4 1 3 2 4 4 2 -2 -3 -4 -12 -9 -5 -8 -7
7 4 3 2 1 3 2 1 0 -1 -2 -6 -4 5 3 10 11 11 9 -12 -17 -18 -19 -19 -19 -18 -15 -14 -11 -10 -5 -3 -2 -3 -7 -8 -7 -10 -17 -8 -7 -6 -5
0 2 0 -0 -1 -1 0 -1 -2 -2 -5 -5 -7 -7 -9 -8 -13 -15 -19 -21 -22 -23 -23 -23 -22 -24 -24 -20 -14 -15 -16 -17 -15 -10 -9 -8 -8 -9 -8 -10 -8 -7 -12
-5 -4 -3 -4 -5 -6 -7 -5 -5 -6 -7 -13 -11 -4 3 -10 -14 -17 -19 -21 -23 -25 -24 -26 -25 -25 -25 -21 -19 -20 -23 -17 -16 -8 -8 -9 -9 -14 -10 -8 -7 -10 -9
-8 -11 -10 -10 -9 -8 -10 -8 -9 -9 -10 -9 -11 -8 4 -11 -17 -19 -22 -24 -25 -25 -25 -26 -25 -23 -21 -20 -19 -18 -17 -15 -18 -8 -7 -10 -11 -11 -12 -12 -12 -11 -10
-10 -10 -11 -14 -12 -11 -14 -17 -16 -15 -16 -17 -15 -13 -17 -18 -17 -19 -22 -25 -27 -25 -25 -28 -26 -21 -20 -22 -20 -13 -11 -14 -14 -12 -11 -10 -11 -12 -16 -17 -22 -16 -13
-13 -13 -12 -14 -15 -16 -17 -18 -16 -14 -16 -18 -19 -19 -15 -20 -25 -23 -24 -24 -26 -26 -27 -26 -24 -21 -19 -19 -21 -19 -15 -12 -16 -14 -11 -11 -12 -14 -18 -28 -24 -17 -12
-17 -16 -16 -16 -18 -18 -17 -18 -17 -20 -20 -18 -21 -22 -24 -24 -24 -26 -26 -26 -25 -25 -20 -20 -19 -19 -17 -16 -17 -19 -18 -6 -9 -13 -16 -15 -15 -19 -29 -28 -27 -23 -15
-17 -16 -18 -18 -19 -21 -20 -18 -19 -20 -22 -20 -19 -20 -19 -21 -21 -22 -23 -24 -21 -19 -19 -19 -19 -18 -18 -16 -17 -13 -12 -5 -8 -11 -16 -16 -19 -25 -28 -27 -28 -23 -18
Lifted_Index
9 8 7 7 7 8 11 14 16 17 17 17 17 17 18 18 18 19 19 19 20 20 21 21 21 21 21 20 20 20 20 19 18 18 17 17 17 17 16 16 15 15 14
8 8 7 7 7 10 13 15 16 17 17 17 17 17 17 18 18 18 18 19 19 20 20 20 20 20 20 20 19 19 19 19 18 17 17 16 16 16 15 15 14 14 14
8 8 7 7 9 12 14 16 17 17 17 17 17 17 17 17 18 18 18 18 19 19 19 19 19 19 19 18 18 18 18 18 17 16 16 15 14 14 14 13 13 13 13
8 7 7 8 10 13 15 16 17 17 17 17 17 17 17 17 17 17 17 17 18 18 18 18 18 18 17 17 17 16 16 16 16 15 14 13 13 12 12 12 11 11 11
8 7 7 9 11 14 16 17 17 17 17 17 17 17 17 17 17 16 17 17 17 17 17 18 17 17 16 16 16 15 15 15 14 13 13 12 11 11 11 11 10 10 9
9 8 8 10 13 15 16 17 17 17 17 17 16 16 16 16 16 16 16 17 17 16 16 16 16 16 15 15 15 14 14 13 12 12 11 11 10 10 10 10 9 9 8
10 9 10 11 13 15 16 17 17 17 16 16 16 16 16 16 16 16 16 16 16 16 15 15 15 15 15 14 14 13 13 12 11 11 10 10 10 10 10 10 9 9 9
10 10 10 12 14 15 16 16 16 16 15 15 15 15 15 15 15 16 16 16 16 15 15 15 14 14 14 13 13 12 11 10 10 10 10 11 11 11 11 11 10 10 9
10 10 11 12 13 14 15 15 15 15 14 14 15 15 15 14 14 15 16 15 15 15 14 14 13 13 12 12 11 10 9 9 9 10 10 11 11 12 12 11 11 10 9
10 11 12 13 13 14 14 15 15 15 14 14 14 14 14 13 14 15 15 15 14 14 13 13 12 12 11 11 10 9 8 8 8 9 9 10 11 11 11 11 11 10 10
11 12 12 13 14 15 15 15 15 14 14 14 13 13 12 13 14 15 15 15 14 13 12 12 11 11 11 10 10 9 9 9 8 8 8 9 10 10 11 11 12 11 11
11 11 11 12 13 14 15 14 13 13 13 13 12 11 12 13 14 15 14 14 13 12 11 11 10 10 10 10 9 9 9 9 9 8 8 8 9 10 11 11 12 12 12
9 9 10 11 12 13 13 12 12 12 12 11 11 11 12 13 13 13 13 12 12 11 10 10 10 10 9 9 9 9 10 10 9 9 8 9 10 10 11 11 12 12 12
9 9 10 11 11 12 12 12 12 12 12 11 11 11 11 11 11 11 11 11 10 10 10 9 9 9 9 9 9 9 10 10 10 9 9 10 10 11 11 11 11 11 11
11 11 12 12 12 13 13 13 12 12 11 11 11 10 10 10 10 10 10 9 9 9 9 8 8 8 8 8 8 9 10 10 10 10 10 11 11 11 11 11 11 11 11
13 13 13 13 13 13 12 12 11 11 11 10 10 10 10 10 10 9 9 9 9 9 8 7 7 7 7 8 8 9 10 11 11 11 11 11 12 12 12 12 11 11 11
13 14 13 13 13 13 12 11 11 10 10 10 10 10 10 10 10 9 9 9 9 9 8 7 8 8 9 9 10 10 11 12 13 13 13 13 13 13 13 12 12 12 12
13 13 13 12 12 12 11 11 10 10 9 9 10 10 10 10 10 9 9 9 8 9 9 9 10 10 11 11 12 12 13 13 14 14 14 14 14 14 13 13 13 12 12
12 12 11 11 11 11 10 10 10 9 9 9 9 10 10 10 9 9 9 9 9 9 10 11 11 12 12 12 13 14 14 14 15 15 15 15 15 15 14 14 13 13 13
11 10 10 10 10 10 9 9 9 9 8 8 8 9 9 9 8 9 10 10 10 11 11 12 12 13 13 14 14 14 15 15 15 16 16 16 16 15 15 14 14 13 13
10 9 9 9 9 8 8 8 8 8 8 8 8 9 9 9 9 9 10 11 11 12 12 13 13 14 14 14 15 15 15 15 16 16 16 16 16 15 15 14 14 14 14
9 8 8 8 8 8 8 8 8 8 8 8 8 9 9 10 10 10 11 12 12 13 14 14 14 14 15 15 15 15 15 15 16 16 16 16 15 15 14 14 14 14 14
8 8 8 8 8 8 8 8 8 8 8 8 9 9 10 10 11 11 12 13 13 14 15 15 15 15 15 16 16 16 15 16 16 16 16 15 15 14 14 14 14 14 14
9 9 9 9 9 9 9 9 9 9 9 9 10 10 11 11 12 12 13 14 14 14 15 15 15 15 15 15 16 16 16 16 16 16 15 15 14 14 14 14 15 15 15
10 10 10 10 10 10 10 10 10 10 10 10 11 11 12 12 13 13 14 14 14 14 14 15 15 15 15 15 15 16 16 17 16 16 15 15 14 14 14 15 15 15 15
12 11 11 11 11 11 11 10 10 10 10 11 12 12 13 13 13 14 14 14 14 14 14 14 15 15 15 15 16 16 16 16 16 16 16 15 14 14 15 15 15 15 15